Find Starlink 30822

NORAD ID: 58193 Int'l Des: 2023-167 Owner: SPXS Country: US Constellation: starlink operational
LEOCIRCULAR

リアルタイム位置

3D地球を読み込み中...

Starlink 30822について

説明を読み込み中...

次回通過

Passes for default location (London). Set your location on the main map for personalized predictions.

高度履歴

Loading altitude history...

軌道要素

1 58193U 23167U 26125.19461287 .00000467 00000-0 26503-4 0 9996
2 58193 43.0005 184.5528 0002161 285.3676 74.6937 15.27574559139627
Epoch: May 5, 2026 • Age: 6 hours

現在のステータス

高度 483.7 km
速度 7.62 km/s
衛星直下点 -3.79°S, 8.79°W
打ち上げ日 Oct 30, 2023
運用期間 2.5 years
タイプ internet

技術仕様

分類 Payload
質量 730.00 kg
乾燥質量 700.00 kg
総質量 730.00 kg
長さ 0.30 m
直径 4.10 m
スパン 29.00 m
形状 Box + pan
製造者 SPXS
バスタイプ Starlink V2M
フェーズステータス In Orbit
所有者/国 SPXS/US

Most Searched